Tracking 19717 objects as of 24-Jun-2019
HD Live streaming from Space Station
objects crossing your sky now

COSMOS 2131

Track COSMOS 2131 now!
10-day predictions
COSMOS 2131 is classified as:


NORAD ID: 21106
Int'l Code: 1991-009G
Perigee: 1,394.6 km
Apogee: 1,474.6 km
Inclination: 74.0 °
Period: 114.4 minutes
Semi major axis: 7805 km
RCS: 0.6789 m2 (medium)
Launch date: February 12, 1991
Source: Commonwealth of Independent States (former USSR) (CIS)
Launch site: PLESETSK MISSILE AND SPACE COMPLEX (PKMTR)
aabbcc
Your satellite tracking list
Your tracking list is empty




NASA's NSSDC Master Catalog

Two Line Element Set (TLE):
1 21106U 91009G   19174.78332139 -.00000011 +00000-0 +26791-4 0  9999
2 21106 074.0287 236.8404 0051229 105.6426 013.1748 12.58914830303292
Source of the keplerian elements: AFSPC